Location: ??????
(38.0677°N, 22.9870°E)
Time: 15:51:06
(UTC+00:00)

NOAA 11 - Pass Details

Date: 23 May 2024
Orbit: 833 x 848 km, 98.5° (Epoch: 23 June)

Event Time Altitude Azimuth Distance (km) Brightness Sun altitude
Rises 01:48:38 0° 13° (NNE) 3,418 8.3 -14.3°
Reaches altitude 10° 01:51:01 10° 15° (NNE) 2,479 7.5 -13.9°
Maximum altitude 01:56:32 82° 103° (ESE) 859 4.3 -13.1°
Drops below altitude 10° 02:02:01 10° 191° (SSW) 2,460 6.2 -12.3°
Enters shadow 02:02:25 - 192° (SSW) 2,619 6.3 -12.2°
